This demonstration page uses our WeatherBlox Daily Observations layout. Learn more.

Left ArrowRight Arrow

30.21309, -93.2044

Hourly Observations for May 30, 2022

Temp ( °F °C ) Dew Point ( °F °C ) Humidity (%) Winds ( mph kmh ) Pressure ( in mb ) Visibility ( mi km ) Precip ( " mm )
12:15 am 00:15 Clear 73 23 71 21.4 91 91 SSE 8 13 29.86 1011 10 16 0.00 0.00
12:35 am 00:35 Clear 73 22.9 71 21.5 92 92 SSE 9 15 29.87 1011 10 16 0.00 0.00
12:55 am 00:55 Clear 73 22.9 71 21.4 91 91 SSE 8 13 29.86 1011 10 16 0.00 0.00
1:15 am 01:15 Clear 73 22.8 70 21.3 91 91 SSE 8 13 29.86 1011 10 16 0.00 0.00
1:35 am 01:35 Clear 74 23.3 71 21.7 91 91 SE 10 17 29.85 1011 10 16 0.00 0.00
1:55 am 01:55 Clear 74 23.2 71 21.5 90 90 SE 7 11 29.85 1011 10 16 0.00 0.00
2:15 am 02:15 Clear 73 23 71 21.5 91 91 SSE 8 13 29.85 1011 10 16 0.00 0.00
2:35 am 02:35 Partly Cloudy 73 22.6 70 21.3 92 92 SSE 8 13 29.85 1011 10 16 0.00 0.00
2:55 am 02:55 Clear 73 22.5 70 21.3 93 93 SSE 7 11 29.85 1011 10 16 0.00 0.00
3:15 am 03:15 Partly Cloudy 73 22.5 70 21.3 93 93 SSE 7 11 29.84 1010 10 16 0.00 0.00
3:35 am 03:35 Partly Cloudy 72 22.4 70 21.2 93 93 SSE 7 11 29.84 1010 10 16 0.00 0.00
3:55 am 03:55 Partly Cloudy 72 22.3 70 21.1 93 93 SSE 7 11 29.84 1010 10 16 0.00 0.00
4:15 am 04:15 Clear 71 21.9 69 20.8 94 94 SSE 7 11 29.84 1010 10 16 0.00 0.00
4:35 am 04:35 Clear 71 21.8 69 20.6 93 93 SSE 7 11 29.85 1011 10 16 0.00 0.00
4:55 am 04:55 Clear 71 21.7 69 20.5 93 93 SSE 7 11 29.84 1010 10 16 0.00 0.00
5:15 am 05:15 Clear 71 21.6 69 20.3 92 92 SSE 7 11 29.85 1011 10 16 0.00 0.00
5:35 am 05:35 Clear 71 21.6 68 20.2 92 92 SSE 7 11 29.85 1011 10 16 0.00 0.00
6:00 am 06:00 Mostly Clear 70 21 68 20 94 94 SE 8 13 29.85 1011 10 16 0.00 0.00
6:55 am 06:55 Mostly Cloudy 73 23 72 22 94 94 SE 8 13 29.86 1011 10 16 0.00 0.00
7:50 am 07:50 Mostly Sunny 77 25 72 22 83 83 SE 13 20 29.87 1011 10 16 0.00 0.00
8:54 am 08:54 Partly Cloudy 82 28 72 22 70 70 SSE 16 26 29.88 1012 10 16 0.00 0.00
9:54 am 09:54 Partly Cloudy 84 29 68 20 58 58 S 16 26 29.89 1012 10 16 0.00 0.00
11:55 am 11:55 Partly Cloudy 88 31 70 21 55 55 S 16 26 29.90 1013 10 16 0.00 0.00
12:55 pm 12:55 Mostly Cloudy 88 31 70 21 55 55 SSE 16 26 29.90 1013 10 16 0.00 0.00
1:55 pm 13:55 Mostly Cloudy 90 32 68 20 49 49 SSE 16 26 29.90 1012 10 16 0.00 0.00
2:55 pm 14:55 Mostly Cloudy 88 31 70 21 55 55 SSE 17 28 29.89 1012 10 16 0.00 0.00
3:54 pm 15:54 Mostly Cloudy 90 32 70 21 52 52 SSE 16 26 29.87 1011 10 16 0.00 0.00
4:47 pm 16:47 Mostly Cloudy 86 30 70 21 59 59 S 13 20 29.87 1011 10 16 0.00 0.00
5:46 pm 17:46 Partly Cloudy 88 31 70 21 55 55 SSE 15 24 29.87 1011 10 16 0.00 0.00
6:54 pm 18:54 Partly Cloudy 86 30 72 22 62 62 SE 16 26 29.86 1011 10 16 0.00 0.00
7:46 pm 19:46 Partly Cloudy 82 28 72 22 70 70 SSE 10 17 29.87 1011 10 16 0.00 0.00
8:52 pm 20:52 Mostly Clear 79 26 72 22 79 79 SSE 8 13 29.89 1012 10 16 0.00 0.00
9:47 pm 21:47 Mostly Clear 77 25 72 22 83 83 SSE 8 13 29.91 1013 10 16 0.00 0.00
10:15 pm 22:15 Clear 77 24.9 72 22.4 86 86 SE 7 11 29.92 1013 10 16 0.00 0.00
10:35 pm 22:35 Clear 77 24.8 73 22.5 87 87 SE 8 13 29.92 1013 10 16 0.00 0.00
10:55 pm 22:55 Clear 76 24.6 73 22.6 89 89 SE 6 9 29.92 1013 10 16 0.00 0.00
11:15 pm 23:15 Clear 76 24.5 73 22.7 90 90 SE 7 11 29.93 1014 10 16 0.00 0.00
11:35 pm 23:35 Clear 76 24.7 73 22.7 89 89 SE 8 13 29.93 1014 10 16 0.00 0.00
11:55 pm 23:55 Clear 76 24.7 73 22.7 89 89 SSE 8 13 29.93 1014 10 16 0.00 0.00

Powered by AerisWeather